Regional Weather Roundup
Issued by NWS

Home | Current Version | Previous Version | Text Only | Print | Product List | Glossary On
Versions: 1 2 3 4 5 6 7 8 9 10 11 12 13 14 15 16 17 18 19 20 21 22 23 24 25 26 27 28 29 30 31 32 33 34 35 36 37 38 39 40 41 42 43 44 45 46 47 48 49 50
000
ASUS44 KJAN 060910
RWRMS

MISSISSIPPI HOURLY WEATHER ROUNDUP
NATIONAL WEATHER SERVICE JACKSON MS
400 AM CDT MON JUL 06 2015

NOTE: "FAIR: INDICATES FEW OR NO CLOUDS BELOW 12,000 FEET WITH NO
SIGNIFICANT WEATHER AND/OR OBSTRUCTIONS TO VISIBILITY.

MSZ001>002-007>008-010>013-018>021-025>028-034>036-061000-
NORTHWEST MISSISSIPPI

CITY           SKY/WX    TMP DP  RH WIND       PRES   REMARKS
CLARKSDALE     FAIR      68  68 100 SE5       30.07R
CLEVELAND      FAIR      67  67 100 S5        30.07R
GREENWOOD      CLEAR     67  65  93 S3        30.08R
GREENVILLE     CLEAR     67  67 100 S5        30.06R
OLIVE BRANCH     N/A     68 N/A N/A S3        30.07R
TUNICA         SUNNY     68  68 100 S3        30.07R
$$

MSZ003>006-009-014>017-022>024-029>033-037>039-061000-
NORTHEAST MISSISSIPPI

CITY           SKY/WX    TMP DP  RH WIND       PRES   REMARKS
COLUMBUS AFB   PTCLDY    68  68 100 S3        30.10R
CORINTH        PTSUNNY   70  68  94 SE3       30.08R
GOLDN TRIANGLE MOCLDY    66  64  94 SE5       30.09R
STARKVILLE     CLOUDY    64  64 100 CALM      30.09S FOG
TUPELO         PTCLDY    70  67  90 CALM      30.09R
$$

MSZ040-058-061000-
CENTRAL MISSISSIPPI

CITY           SKY/WX    TMP DP  RH WIND       PRES   REMARKS
JACKSON INTL   CLEAR     67  66  97 SE5       30.10R
JACKSON HAWKNS CLEAR     67  66  97 SE5       30.11R
MERIDIAN KEY   CLOUDY    66  66 100 SW8       30.14R FOG
MERIDIAN NAS   CLOUDY    67  65  93 SW7       30.13R
VICKSBURG      PTCLDY    68  66  93 CALM      30.09R
$$

MSZ059>079-061000-
SOUTH MISSISSIPPI

CITY           SKY/WX    TMP DP  RH WIND       PRES   REMARKS
BROOKHAVEN       N/A     66  66 100 CALM      30.13R
HATTIESBURG    MOCLDY    69  67  93 CALM      30.14R
MCCOMB         MOCLDY    68  68 100 CALM      30.12R
NATCHEZ        NOT AVBL
PINE BELT      CLOUDY    66  63  88 CALM      30.15R
$$

MSZ080>082-061000-
COASTAL MISSISSIPPI

CITY           SKY/WX    TMP DP  RH WIND       PRES   REMARKS
BILOXI         NOT AVBL
PASCAGOULA     MOCLDY    69  69 100 CALM      30.11S
GULFPORT       MOCLDY    70  68  93 CALM      30.11R
$$



USA.gov is the U.S. government's official web portal to all federal, state and local government web resources and services.